Weather History for Christchurch, New Zealand

Change the Weather History Date:

Tuesday, May 28, 2013

  Actual Average Record
Temperature  
Mean Temperature 38 °F -  
Max Temperature 44 °F 55 °F 69 °F (1999)
Min Temperature 33 °F 38 °F 30 °F (2002)
Degree Days  
Heating Degree Days 26    
Moisture  
Dew Point 28 °F    
Average Humidity 66    
Maximum Humidity 93    
Minimum Humidity 46    
Precipitation  
Precipitation 0.00 in - - ()
Sea Level Pressure  
Sea Level Pressure 29.69 in    
Wind  
Wind Speed 14 mph ()    
Max Wind Speed 29 mph    
Max Gust Speed 44 mph    
Visibility 5.9 miles    
Events Rain , Snow    
Averages and records for this station are not official NWS values.
T = Trace of Precipitation, MM = Missing Value Source: Averaged Metar Reports

Daily Weather History Graph

Daily Weather History Graph

Search for Another Location

Airport:

Trip Planner

Search our weather history database for the weather conditions in past years. The results will help you decide how hot, cold, wet, or windy it might be!

Date:

Astronomy

May. 28, 2013 Rise Set
Actual Time 7:49 AM NZST 5:04 PM NZST
Civil Twilight 7:17 AM NZST 5:36 PM NZST
Nautical Twilight 6:41 AM NZST 6:12 PM NZST
Astronomical Twilight 6:07 AM NZST 6:46 PM NZST
Moon 8:30 PM NZST (5/28) 10:23 AM NZST (5/28)
Length of Visible Light 10h 19m
Length of Day
9h 15m
Waning Gibbous, 88% of the Moon is Illuminated
May 28
Waning Gibbous
Jun 1
Last Quarter
Jun 9
New
Jun 17
First Quarter
Jun 23
Full

Hourly Weather History & Observations

Time (NZST) Temp. Windchill Dew Point Humidity Pressure Visibility Wind Dir Wind Speed Gust Speed Precip Events Conditions
12:00 AM 39.2 °F 32.5 °F 35.6 °F 87% 29.50 in 6.2 mi West 10.4 mph 21.9 mph N/A   Mostly Cloudy
1:00 AM 41.0 °F 34.3 °F 32.0 °F 70% 29.50 in 6.2 mi WSW 11.5 mph - N/A   Partly Cloudy
2:00 AM 41.0 °F 35.8 °F 32.0 °F 70% 29.50 in 6.2 mi WSW 8.1 mph - N/A   Scattered Clouds
3:00 AM 39.2 °F 33.0 °F 30.2 °F 70% 29.53 in - WSW 9.2 mph - N/A   Clear
4:00 AM 39.2 °F 34.2 °F 30.2 °F 70% 29.53 in - West 6.9 mph - N/A   Clear
5:00 AM 37.4 °F 30.3 °F 28.4 °F 70% 29.53 in - WSW 10.4 mph - N/A   Clear
6:00 AM 35.6 °F 28.6 °F 26.6 °F 70% 29.53 in - WSW 9.2 mph - N/A   Clear
7:00 AM 37.4 °F 29.8 °F 24.8 °F 60% 29.56 in - WSW 11.5 mph - N/A   Clear
8:00 AM 35.6 °F 28.6 °F 23.0 °F 60% 29.59 in - WSW 9.2 mph - N/A   Clear
9:00 AM 37.4 °F 28.9 °F 23.0 °F 56% 29.62 in 6.2 mi WSW 13.8 mph - N/A   Scattered Clouds
10:00 AM 41.0 °F 32.8 °F 24.8 °F 53% 29.62 in 6.2 mi WSW 16.1 mph - N/A   Scattered Clouds
11:00 AM 42.8 °F 34.3 °F 24.8 °F 49% 29.65 in 6.2 mi SW 19.6 mph - N/A   Scattered Clouds
12:00 PM 44.6 °F 35.5 °F 26.6 °F 49% 29.65 in 6.2 mi SW 25.3 mph - N/A   Scattered Clouds
1:00 PM 44.6 °F 35.1 °F 24.8 °F 46% 29.68 in 6.2 mi SW 27.6 mph - N/A   Scattered Clouds
2:00 PM 44.6 °F 35.5 °F 24.8 °F 46% 29.68 in 6.2 mi SW 25.3 mph 38.0 mph N/A   Scattered Clouds
3:00 PM 44.6 °F 34.9 °F 24.8 °F 46% 29.71 in 6.2 mi SW 28.8 mph 43.7 mph N/A   Mostly Cloudy
4:00 PM 39.2 °F 30.8 °F 33.8 °F 81% 29.74 in 6.2 mi South 15.0 mph - N/A   Mostly Cloudy
5:00 PM 41.0 °F 30.7 °F 28.4 °F 61% 29.77 in 6.2 mi SW 25.3 mph 39.1 mph N/A   Mostly Cloudy
5:35 PM 41.0 °F 30.5 °F 26.6 °F 57% 29.80 in 6.2 mi SW 26.5 mph 42.6 mph N/A Rain Rain Showers
6:00 PM 37.4 °F 25.4 °F 32.0 °F 81% 29.83 in 6.2 mi SSW 27.6 mph 41.4 mph N/A Rain Rain Showers
7:00 PM 35.6 °F 23.7 °F 30.2 °F 81% 29.89 in 1.6 mi SSW 24.2 mph 39.1 mph N/A Rain Heavy Rain Showers
7:15 PM 33.8 °F 22.5 °F 32.0 °F 93% 29.86 in 6.2 mi WSW 19.6 mph - N/A Rain , Snow Rain Showers
8:00 PM 37.4 °F 26.4 °F 32.0 °F 81% 29.89 in 5.0 mi SW 23.0 mph 34.5 mph N/A Rain , Snow Rain Showers
9:00 PM 39.2 °F 30.5 °F 30.2 °F 70% 29.92 in 5.0 mi SW 16.1 mph - N/A   Unknown
10:00 PM 39.2 °F 31.2 °F 30.2 °F 70% 29.95 in 6.2 mi SW 13.8 mph - N/A   Unknown
11:00 PM 39.2 °F 28.7 °F 26.6 °F 61% 29.98 in 6.2 mi WSW 23.0 mph - N/A Rain Light Rain Showers